World > North America > United States > New York
Hourly Weather in Speculator, New YorkSpeculator, New York Hourly Weather

Speculator, NY Hourly Weather

Hourly Weather Speculator, New YorkHourly Weather in Speculator, NY
Lat: 43.58N, Lon: 74.38W  ICAO: KGFL
Web Search

Ads allow us to feed your daily addiction for the world's greatest weather information. We're determined to offer quality sponsors, in the least annoying way possible.

Feedback

Speculator Hourly Weather

36 Hour Weather Scroll   °F Click to change Speculator hourly weather to Imperial units.Click to change Speculator hourly weather to Metric units. °C
Currently, Mostly Cloudy, temperature is 67°F19°C, dew point 45°F7°C, humidity 45%. Wind direction is WSW at 12 mph19 km/h with visibility of 10.00 mi16 km. Barometric pressure is 29.83 in1010 mb.

Sep 26
2:00 PM

Sep 26
3:00 PM

Sep 26
4:00 PM

Sep 26
5:00 PM

Sep 26
6:00 PM

Sep 26
7:00 PM

Sep 26
8:00 PM

Sep 26
9:00 PM

Sep 26
10:00 PM

Sep 26
11:00 PM

Sep 27
MIDNIGHT

Sep 27
1:00 AM

Sep 27
2:00 AM

Sep 27
3:00 AM

Sep 27
4:00 AM

Sep 27
5:00 AM

Sep 27
6:00 AM

Sep 27
7:00 AM

Sep 27
8:00 AM

Sep 27
9:00 AM

Sep 27
10:00 AM

Sep 27
11:00 AM

Sep 27
NOON

Sep 27
1:00 PM

Sep 27
2:00 PM

Sep 27
3:00 PM

Sep 27
4:00 PM

Sep 27
5:00 PM

Sep 27
6:00 PM

Sep 27
7:00 PM

Sep 27
8:00 PM

Sep 27
9:00 PM

Sep 27
10:00 PM

Sep 27
11:00 PM

Sep 28
MIDNIGHT

Sep 28
1:00 AM
Mostly Cloudy Mostly Cloudy Mostly Clear Mostly Clear Mostly Clear Clear Clear Clear Mostly Cloudy Mostly Cloudy Mostly Cloudy Mostly Cloudy Mostly Cloudy Mostly Cloudy Cloudy Cloudy Cloudy Cloudy Cloudy Cloudy Cloudy Cloudy Cloudy Cloudy Cloudy Cloudy Cloudy Cloudy Cloudy Cloudy Cloudy Cloudy Cloudy Cloudy Cloudy Cloudy
Mostly Cloudy Mostly Cloudy Mostly Clear Mostly Clear Mostly Clear Clear Clear Clear Mostly Cloudy Mostly Cloudy Mostly Cloudy Mostly Cloudy Mostly Cloudy Mostly Cloudy Cloudy Cloudy Cloudy Cloudy Cloudy Cloudy Cloudy Cloudy Cloudy Cloudy Cloudy Cloudy Cloudy Cloudy Cloudy Cloudy Cloudy Cloudy Cloudy Cloudy Cloudy Cloudy
68°F20°C 68°F20°C 67°F19°C 67°F19°C 64°F18°C 60°F16°C 57°F14°C 55°F13°C 54°F12°C 52°F11°C 51°F11°C 51°F11°C 50°F10°C 50°F10°C 49°F9°C 49°F9°C 50°F10°C 51°F11°C 52°F11°C 55°F13°C 58°F14°C 61°F16°C 63°F17°C 65°F18°C 67°F19°C 67°F19°C 67°F19°C 67°F19°C 65°F18°C 62°F17°C 60°F16°C 60°F16°C 61°F16°C 61°F16°C 61°F16°C 61°F16°C
- - - - - - - - - - - - - - - - - - - Rain Rain Rain Rain Rain Rain Rain Rain Rain Rain Rain Rain - - - - -
0% 0% 0% 0% 0% 0% 0% 0% 0% 0% 0% 0% 0% 14% 14% 14% 14% 14% 14% 29% 29% 29% 29% 29% 29% 34% 34% 34% 34% 34% 34% 19% 19% 19% 19% 19%
45°F7°C 45°F7°C 44°F7°C 44°F7°C 44°F7°C 45°F7°C 45°F7°C 46°F8°C 46°F8°C 47°F8°C 47°F8°C 46°F8°C 46°F8°C 46°F8°C 46°F8°C 46°F8°C 47°F8°C 47°F8°C 48°F9°C 49°F9°C 50°F10°C 51°F11°C 52°F11°C 54°F12°C 55°F13°C 56°F13°C 56°F13°C 57°F14°C 57°F14°C 58°F14°C 58°F14°C 58°F14°C 58°F14°C 58°F14°C 58°F14°C 58°F14°C
44% 44% 43% 43% 48% 58% 64% 72% 74% 83% 86% 83% 86% 86% 89% 89% 89% 86% 86% 80% 75% 70% 67% 68% 65% 68% 68% 70% 75% 87% 93% 93% 90% 90% 90% 90%
SSW SSW SSW SSW SSW SSW SSW SW SW SSE SSE SSE SSE SSE SSE SSE S S S S S SSE SSE SSE SSE SSE SSE SSE SW SW SW SW SW SW SW SSE
9 mph 9 mph 11 mph 11 mph 11 mph 4 mph 4 mph 4 mph 1 mph 1 mph 1 mph 2 mph 2 mph 2 mph 2 mph 2 mph 2 mph 3 mph 3 mph 3 mph 8 mph 8 mph 8 mph 8 mph 8 mph 8 mph 6 mph 6 mph 6 mph 7 mph 7 mph 7 mph 5 mph 5 mph 5 mph 4 mph
10 mi16 km 10 mi16 km 10 mi16 km 10 mi16 km 10 mi16 km 10 mi16 km 10 mi16 km 10 mi16 km 10 mi16 km 10 mi16 km 10 mi16 km 10 mi16 km 10 mi16 km 10 mi16 km 10 mi16 km 10 mi16 km 10 mi16 km 10 mi16 km 10 mi16 km 10 mi16 km 10 mi16 km 10 mi16 km 10 mi16 km 10 mi16 km 10 mi16 km 10 mi16 km 10 mi16 km 10 mi16 km 10 mi16 km 10 mi16 km 10 mi16 km 10 mi16 km 10 mi16 km 10 mi16 km 10 mi16 km 10 mi16 km
Hour (EDT)
Weather
Clouds
Temperature
Precip. Type
POP
Dewpoint
Humidity
Wind Direction
Wind Speed
Visibility
POP = Probability of Precipitation. ** Indicates missing data/values from model statistics.

24 Hour Forecast

Today - Mostly sunny. Near steady temperature around 60. West winds around 10 mph with gusts up to 20 mph.
Tonight - Mostly clear in the evening, then partly cloudy with a chance of showers after midnight. Lows in the mid 40s. Southwest winds 5 to 10 mph. Chance of rain 30%.

48 Hour Forecast API Feed


Sun, Sep 26
2:00 pm

Sun, Sep 26
3:00 pm

Sun, Sep 26
4:00 pm

Sun, Sep 26
5:00 pm

Sun, Sep 26
6:00 pm

Sun, Sep 26
7:00 pm

Sun, Sep 26
8:00 pm

Sun, Sep 26
9:00 pm

Sun, Sep 26
10:00 pm

Sun, Sep 26
11:00 pm

Mon, Sep 27
Midnight

Mon, Sep 27
1:00 am

Mon, Sep 27
2:00 am

Mon, Sep 27
3:00 am

Mon, Sep 27
4:00 am

Mon, Sep 27
5:00 am

Mon, Sep 27
6:00 am

Mon, Sep 27
7:00 am

Mon, Sep 27
8:00 am

Mon, Sep 27
9:00 am

Mon, Sep 27
10:00 am

Mon, Sep 27
11:00 am

Mon, Sep 27
Noon

Mon, Sep 27
1:00 pm

Mon, Sep 27
2:00 pm

Mon, Sep 27
3:00 pm

Mon, Sep 27
4:00 pm

Mon, Sep 27
5:00 pm

Mon, Sep 27
6:00 pm

Mon, Sep 27
7:00 pm

Mon, Sep 27
8:00 pm

Mon, Sep 27
9:00 pm

Mon, Sep 27
10:00 pm

Mon, Sep 27
11:00 pm

Tue, Sep 28
Midnight

Tue, Sep 28
1:00 am

Tue, Sep 28
2:00 am

Tue, Sep 28
3:00 am

Tue, Sep 28
4:00 am

Tue, Sep 28
5:00 am

Tue, Sep 28
6:00 am

Tue, Sep 28
7:00 am

Tue, Sep 28
8:00 am

Tue, Sep 28
9:00 am

Tue, Sep 28
10:00 am

Tue, Sep 28
11:00 am

Tue, Sep 28
Noon

Tue, Sep 28
1:00 pm
Light Rain ShowerPatchy Rain PossiblePartly CloudyPatchy Rain PossiblePartly CloudyPartly CloudyPatchy Rain PossiblePartly CloudyMistPartly CloudyPartly CloudyPartly CloudyPatchy Rain PossiblePartly CloudyPartly CloudyMistCloudyMistPatchy Rain PossibleOvercastOvercastLight DrizzleLight DrizzleLight DrizzleLight RainCloudyOvercastCloudyCloudyPartly CloudyPatchy Rain PossibleCloudyOvercastOvercastOvercastOvercastPatchy Rain PossibleMistFogLight Rain ShowerMistMistLight Rain ShowerCloudyPartly CloudyPartly CloudyPartly CloudyPartly Cloudy
Light rain showers Patchy rain possible Partly cloudy Patchy rain possible Partly cloudy Partly cloudy Patchy rain possible Partly cloudy Mist Partly cloudy Partly cloudy Partly cloudy Patchy rain possible Partly cloudy Partly cloudy Mist Cloudy Mist Patchy rain possible Overcast Overcast Light drizzle Light drizzle Light drizzle Light rain Cloudy Overcast Cloudy Cloudy Partly cloudy Patchy rain possible Cloudy Overcast Overcast Overcast Overcast Patchy rain possible Mist Fog Light rain showers Mist Mist Light rain showers Cloudy Partly cloudy Partly cloudy Partly cloudy Partly cloudy
58°F
14°C
58°F
15°C
59°F
15°C
58°F
14°C
54°F
12°C
50°F
10°C
47°F
8°C
45°F
7°C
45°F
7°C
47°F
9°C
48°F
9°C
48°F
9°C
48°F
9°C
47°F
9°C
44°F
7°C
43°F
6°C
45°F
7°C
47°F
8°C
49°F
10°C
52°F
11°C
56°F
13°C
56°F
13°C
55°F
13°C
55°F
13°C
60°F
15°C
63°F
17°C
63°F
17°C
62°F
17°C
61°F
16°C
60°F
16°C
59°F
15°C
59°F
15°C
58°F
14°C
57°F
14°C
57°F
14°C
57°F
14°C
57°F
14°C
57°F
14°C
56°F
13°C
53°F
12°C
53°F
12°C
52°F
11°C
52°F
11°C
53°F
12°C
54°F
12°C
56°F
14°C
57°F
14°C
60°F
16°C
45°F
7°C
44°F
7°C
44°F
6°C
45°F
7°C
44°F
7°C
42°F
6°C
43°F
6°C
43°F
6°C
43°F
6°C
44°F
7°C
44°F
7°C
44°F
7°C
44°F
7°C
44°F
6°C
43°F
6°C
42°F
6°C
43°F
6°C
45°F
7°C
47°F
9°C
50°F
10°C
53°F
12°C
54°F
12°C
54°F
12°C
54°F
12°C
55°F
13°C
54°F
12°C
53°F
12°C
54°F
12°C
54°F
12°C
54°F
12°C
54°F
12°C
53°F
12°C
54°F
12°C
54°F
12°C
54°F
12°C
55°F
13°C
55°F
13°C
55°F
13°C
55°F
13°C
53°F
12°C
52°F
11°C
51°F
10°C
50°F
10°C
50°F
10°C
48°F
9°C
46°F
8°C
43°F
6°C
41°F
5°C
29.83 in
1010 mb
29.83 in
1010 mb
29.83 in
1010 mb
29.83 in
1010 mb
29.85 in
1011 mb
29.88 in
1012 mb
29.88 in
1012 mb
29.91 in
1013 mb
29.91 in
1013 mb
29.91 in
1013 mb
29.91 in
1013 mb
29.91 in
1013 mb
29.88 in
1012 mb
29.88 in
1012 mb
29.91 in
1013 mb
29.91 in
1013 mb
29.91 in
1013 mb
29.91 in
1013 mb
29.91 in
1013 mb
29.88 in
1012 mb
29.88 in
1012 mb
29.85 in
1011 mb
29.85 in
1011 mb
29.83 in
1010 mb
29.8 in
1009 mb
29.8 in
1009 mb
29.77 in
1008 mb
29.77 in
1008 mb
29.77 in
1008 mb
29.77 in
1008 mb
29.77 in
1008 mb
29.77 in
1008 mb
29.77 in
1008 mb
29.77 in
1008 mb
29.77 in
1008 mb
29.74 in
1007 mb
29.74 in
1007 mb
29.74 in
1007 mb
29.74 in
1007 mb
29.77 in
1008 mb
29.8 in
1009 mb
29.83 in
1010 mb
29.83 in
1010 mb
29.83 in
1010 mb
29.85 in
1011 mb
29.85 in
1011 mb
29.85 in
1011 mb
29.83 in
1010 mb
62%59%56%63%67%75%85%93%95%89%88%86%85%87%94%95%94%94%94%93%91%93%97%96%84%71%71%75%77%81%82%83%85%88%91%93%94%96%97%97%96%96%94%88%81%68%59%50%
WNWWWWWWWWWWSWSWWSWSWSWSWSWSWSWSWSWWSWSWSWSSWSWSWSWWSWWSWWSWWSWWSWWSWWSWWSWWSWWSWWSWWNWNWNWNWNWNWNWNWNWNW
12 mph
19 km/h
11 mph
18 km/h
12 mph
19 km/h
11 mph
18 km/h
10 mph
17 km/h
8 mph
13 km/h
6 mph
9 km/h
4 mph
7 km/h
4 mph
6 km/h
4 mph
7 km/h
4 mph
7 km/h
4 mph
7 km/h
5 mph
8 km/h
5 mph
8 km/h
5 mph
8 km/h
5 mph
8 km/h
5 mph
8 km/h
5 mph
8 km/h
5 mph
8 km/h
6 mph
10 km/h
7 mph
12 km/h
7 mph
12 km/h
7 mph
11 km/h
6 mph
10 km/h
9 mph
14 km/h
11 mph
18 km/h
11 mph
17 km/h
10 mph
17 km/h
10 mph
17 km/h
9 mph
15 km/h
8 mph
13 km/h
7 mph
12 km/h
6 mph
10 km/h
6 mph
10 km/h
7 mph
12 km/h
7 mph
11 km/h
6 mph
10 km/h
6 mph
9 km/h
4 mph
7 km/h
4 mph
6 km/h
3 mph
5 km/h
3 mph
5 km/h
3 mph
5 km/h
3 mph
5 km/h
4 mph
7 km/h
6 mph
10 km/h
7 mph
12 km/h
8 mph
12 km/h
87%80%0%71%0%0%80%0%0%0%0%0%72%0%0%0%0%0%61%0%0%63%75%71%67%0%0%0%0%0%73%0%0%0%0%0%52%67%81%61%67%64%88%0%0%0%0%0%
6 mi
10 km
6 mi
10 km
6 mi
10 km
6 mi
10 km
6 mi
10 km
6 mi
10 km
6 mi
10 km
6 mi
10 km
1 mi
2 km
6 mi
10 km
6 mi
10 km
6 mi
10 km
6 mi
10 km
6 mi
10 km
6 mi
10 km
1 mi
2 km
6 mi
10 km
1 mi
2 km
6 mi
10 km
6 mi
10 km
6 mi
10 km
1 mi
2 km
1 mi
2 km
1 mi
2 km
6 mi
9 km
6 mi
10 km
6 mi
10 km
6 mi
10 km
6 mi
10 km
6 mi
10 km
6 mi
10 km
6 mi
10 km
6 mi
10 km
6 mi
10 km
6 mi
10 km
6 mi
10 km
6 mi
10 km
1 mi
2 km
0 mi
0 km
6 mi
10 km
1 mi
2 km
1 mi
2 km
6 mi
10 km
6 mi
10 km
6 mi
10 km
6 mi
10 km
6 mi
10 km
6 mi
10 km

Day/Time
Weather
Condition
Temperature
Dew Point
Pressure
Humidity
Wind Direction
Wind Speed
Prob Precip %
Visibility
Prob Precip % = Probability of Precipitation.